Weather in Andreishur

Russia / Udmurt Republic     57°46′50″N   53°12′43″E
temp.,
°C
wind,
m/s
gust,
m/s
humid.,
%
clouds,
%
prec.,
mm/h
press.,
hPa
HPBL,
m
24 july, sat
sat2401:00+14s3874100 0.0 1003193
04:00+14sw387879 0.1 1003288
07:00+15sw388299 0.1 1003406
10:00+16w468465 1.4 1003926
13:00+15nw3687100 2.0 1005820
16:00+17nw4567100 2.9 10071465
19:00+15nnw4766100 0.0 1009681
22:00+10nw227785 0.0 101117
25 july, sun
sun2501:00+8nw26795 0.0 1013110
04:00+6nw24775 0.0 101575
07:00+10nw256438 0.0 1017259
10:00+15nw45474 0.0 10181418
13:00+17wnw464055 0.0 10182226
16:00+15nw2657100 0.0 1019661
19:00+14w2463100 0.0 101996
22:00+12w2668100 0.0 1020147
26 july, mon
mon2601:00+12w2366100 0.0 102078
04:00+11wsw2566100 0.0 1021116
07:00+12wsw2671100 0.0 1021191
10:00+17w47515 0.0 10201201
13:00+18wnw375491 0.0 10201664
16:00+17wsw3866100 0.0 1019339
19:00+18w410659 0.2 1018673
22:00+14wsw312735 0.3 1017323
27 july, tue
tue2701:00+16wsw4126296 0.0 1016574
04:00+12w3997100 0.9 1015312
07:00+14wnw499586 0.1 1016602
10:00+14nw3579100 0.2 1016821
13:00+16wnw466025 0.0 10161377
16:00+17nnw565657 0.0 10151438
19:00+15nw476379 0.0 1015846
22:00+11nw297623 0.0 1016228
28 july, wed
wed2801:00+8nnw228819 0.0 101731
04:00+7nw22911 0.0 101825
07:00+11nw23690 0.0 1017217
10:00+17w234717 0.0 1016988
13:00+20wsw464021 0.0 10141748
16:00+21w584372 0.0 10111763
19:00+19wsw51159100 0.0 1009806
22:00+16wsw51576100 0.3 1007550